Temp_Advection
nan nan nan nan nan nan nan nan nan nan nan nan nan nan nan nan nan nan nan nan nan nan nan nan nan nan nan nan nan nan nan nan nan nan nan nan nan nan nan nan nan nan nan nan
nan -0 -0 -0 0 -0 0 -0 0 0 -0 0 0 0 1 1 -0 -1 -1 -0 0 1 3 1 1 1 1 0 0 -0 0 0 0 0 0 0 0 0 0 0 0 1 1 nan
nan -0 0 0 -0 0 -0 0 0 -0 0 0 0 0 0 0 -0 -0 -0 1 2 3 3 1 0 0 0 0 0 0 0 -0 0 0 0 0 0 0 0 0 0 0 0 nan
nan -0 -0 -0 -0 -0 -0 -0 0 -0 -0 0 0 0 0 0 0 0 1 1 1 1 1 0 1 1 1 1 0 0 1 0 -0 -0 -0 -0 0 0 0 0 0 0 0 nan
nan -0 -0 -0 -0 -0 -0 0 0 0 -0 -0 -0 0 -0 -0 0 0 1 1 1 1 1 0 0 1 1 0 1 0 -0 -0 0 0 0 1 1 0 0 0 0 0 0 nan
nan 0 -0 0 0 0 -0 0 -0 -0 0 0 -0 -0 0 0 0 0 1 1 1 1 1 -0 -0 1 0 -0 -0 -0 -0 -0 0 0 0 0 0 0 0 0 0 0 -0 nan
nan -0 -0 -0 0 0 -0 0 -0 -0 -0 -0 -0 0 0 0 0 0 1 1 1 0 -1 -0 0 0 -1 -1 -1 -0 0 0 0 0 0 -0 -0 0 0 -0 -0 -0 -0 nan
nan -0 -0 -0 -0 -0 -0 -0 -0 -0 -0 -0 -0 -0 0 0 0 0 0 0 0 -0 -1 -0 0 -0 -1 -1 -0 0 0 0 -0 -0 -0 -0 -0 -0 -0 -0 -0 -0 -0 nan
nan -0 -0 -0 -0 -0 -0 -0 -0 -0 -0 -0 -0 -0 -0 0 0 0 -0 -0 -0 -0 -0 -0 -0 -0 -1 -1 -0 0 -0 -0 -0 -0 -0 -0 -0 -0 -0 -0 -0 -0 -0 nan
nan 0 -0 -1 -0 -0 0 0 -0 0 -0 -0 -0 -0 -0 -0 -0 -0 -0 -0 -0 -0 -0 -0 -0 -0 -1 -0 -0 -0 -1 -1 -0 -0 -0 -0 -0 -0 -0 -0 -0 -0 -0 nan
nan -0 -0 -1 -1 -0 0 0 -0 -0 -0 -0 -0 -0 -0 -0 -0 -0 -0 -0 -0 -0 -0 -0 -0 -0 -0 -0 -0 -0 -1 -1 -0 -0 -0 -0 -0 -0 -0 -0 -0 -0 -0 nan
nan -2 -1 -0 -1 -0 -0 -0 0 0 0 0 0 0 0 0 0 0 0 0 0 -0 -0 -0 -0 -0 -0 -0 -0 -0 -0 -0 -0 -0 -0 -0 -0 -0 -0 -0 -0 -0 0 nan
nan -0 1 -0 0 0 -0 0 0 0 0 0 0 0 0 0 0 0 0 0 0 0 0 0 0 -0 -0 -0 -0 -0 -0 0 -0 -0 -0 -0 -0 -0 -0 -0 -0 -0 -0 nan
nan 0 -0 -1 0 0 0 0 0 0 0 0 0 0 0 0 0 0 0 0 0 0 0 0 0 0 0 -0 -0 -0 -0 -0 0 0 0 -0 -0 -0 -1 -0 -0 -0 -0 nan
nan 0 -0 0 0 0 1 1 0 0 0 0 0 0 0 0 0 0 0 0 0 0 0 0 0 0 0 0 0 -0 -0 -0 -0 -0 -0 -0 -0 -0 -0 -0 -0 -0 -0 nan
nan 1 0 -0 0 1 1 -0 -1 -0 -0 0 0 1 1 1 1 1 1 1 1 1 1 0 0 0 -0 -0 -0 -0 -0 -0 -0 -0 -0 -0 -0 -0 -0 -0 -0 -0 -0 nan
nan -1 -1 -1 -0 0 0 -1 -0 0 0 1 1 1 1 1 1 1 1 1 0 0 0 -0 0 0 -0 -0 -0 0 0 -0 -0 -0 0 0 -0 -0 -0 -0 -0 -0 -0 nan
nan -1 -0 -0 -0 0 0 0 0 0 1 1 1 0 0 0 1 1 1 1 0 0 0 0 0 0 0 0 0 -0 0 0 0 0 0 0 0 0 0 0 0 -0 -0 nan
nan 0 0 0 0 0 0 0 1 1 1 1 0 0 0 1 1 1 0 1 0 0 0 0 -0 0 0 0 0 0 0 0 0 0 0 -0 0 0 0 0 0 0 -0 nan
nan 0 1 0 0 0 0 1 1 1 1 1 1 0 0 1 1 1 0 0 1 0 0 0 0 0 0 0 0 0 0 0 0 0 0 -0 -0 0 0 0 0 0 -0 nan
nan 0 0 0 0 0 0 1 1 1 1 1 0 0 1 1 1 1 0 0 1 1 -0 0 0 0 0 0 0 0 0 0 0 0 0 0 -0 -0 -0 0 0 0 -0 nan
nan 0 1 0 0 0 0 1 1 1 1 0 0 1 1 1 1 1 0 1 1 0 0 0 0 0 0 0 0 0 0 0 0 0 0 0 1 0 -0 -0 -0 0 0 nan
nan 0 0 0 -0 0 1 1 1 1 1 0 1 1 1 1 1 0 0 0 0 0 0 0 0 0 0 0 0 1 0 -0 -0 0 0 0 0 0 0 -0 -0 -0 0 nan
nan 1 1 0 0 1 1 1 1 1 1 1 1 1 1 0 0 0 0 0 0 0 0 0 0 0 0 0 0 1 1 0 0 0 0 0 0 0 0 0 -0 0 0 nan
nan 1 2 0 -0 0 0 1 1 1 0 0 1 1 1 0 0 0 0 0 0 0 0 0 0 0 0 0 0 1 1 0 0 0 0 0 0 0 0 0 0 0 0 nan
nan -1 -0 1 1 0 1 1 0 0 0 1 1 1 1 0 0 0 0 0 0 0 0 0 0 0 0 0 0 0 0 0 0 0 0 0 -0 0 0 -0 0 0 0 nan
nan nan nan nan nan nan nan nan nan nan nan nan nan nan nan nan nan nan nan nan nan nan nan nan nan nan nan nan nan nan nan nan nan nan nan nan nan nan nan nan nan nan nan nan
Wind_Speed
6 3 1 2 4 6 5 2 3 7 8 13 17 19 25 30 37 37 36 30 26 37 38 30 25 16 16 29 30 30 32 32 29 21 26 24 24 24 28 23 26 28 32 33
1 2 4 3 7 5 4 3 2 3 1 7 18 26 28 33 34 34 35 37 40 41 46 43 38 32 32 31 31 27 27 26 28 23 23 23 20 15 16 14 8 34 21 25
3 3 3 3 2 2 2 2 3 3 2 1 7 16 25 27 30 30 32 35 41 44 43 42 38 40 39 32 31 32 31 27 22 19 18 18 17 14 12 11 10 12 14 31
3 4 1 4 3 4 2 0 5 3 5 4 3 4 23 26 27 30 35 38 39 38 37 35 33 33 32 31 31 28 31 27 22 20 20 17 15 14 12 9 6 7 7 10
2 2 5 3 4 3 1 1 1 3 6 4 4 4 9 24 22 23 26 29 31 32 32 33 34 32 32 32 30 27 25 23 20 18 19 18 18 15 13 8 4 4 6 6
2 2 4 4 3 3 3 2 2 1 3 7 5 5 4 19 20 21 23 26 28 30 30 31 31 30 32 34 31 30 26 23 20 17 16 13 13 12 10 8 7 5 3 2
2 3 6 5 5 4 2 4 7 7 4 3 3 3 5 10 16 19 22 23 24 27 30 28 25 25 29 29 31 26 23 20 20 18 16 15 12 11 9 7 5 3 3 3
1 1 6 8 4 6 4 9 11 11 10 13 12 7 5 8 11 14 17 19 21 21 22 22 22 20 23 27 23 19 18 17 17 17 16 14 13 11 9 8 6 5 4 5
7 5 4 13 4 6 9 10 10 9 11 10 11 9 7 7 8 9 12 15 16 14 16 18 18 19 18 20 17 18 17 15 14 12 10 10 9 10 9 9 8 8 7 6
1 3 8 12 14 10 14 11 11 9 10 9 7 7 6 5 5 5 6 8 8 10 13 14 13 14 17 15 15 15 14 15 12 9 8 8 8 9 10 9 8 8 8 9
6 7 5 14 17 15 15 12 12 11 8 5 5 4 3 2 1 1 2 2 3 6 8 10 12 12 10 10 11 12 13 12 12 11 11 11 11 9 9 11 12 12 12 11
6 11 9 4 26 21 20 18 14 12 10 9 7 6 5 4 3 3 3 4 5 6 7 10 13 13 13 12 14 14 13 13 13 12 11 10 8 8 10 12 12 13 15 16
5 6 24 6 15 25 23 21 18 15 12 10 9 8 7 7 7 7 8 8 8 8 9 10 11 13 14 14 15 16 16 16 16 15 13 12 12 12 10 9 11 13 15 16
21 8 15 15 14 29 25 20 18 16 14 12 11 11 11 11 11 11 11 12 12 12 12 12 12 12 13 14 14 14 15 15 16 15 15 15 15 15 14 12 12 12 12 14
26 21 11 18 16 27 26 24 23 21 18 16 15 14 14 14 15 15 16 17 18 18 18 16 13 11 13 14 14 13 13 14 12 12 12 13 14 15 16 16 16 15 13 13
27 24 20 15 24 27 30 29 28 26 23 20 19 18 17 16 16 17 18 18 17 16 16 16 16 14 14 13 13 12 11 10 9 9 10 11 12 13 13 13 14 15 14 14
28 27 28 24 28 31 36 33 30 28 24 22 20 17 17 17 17 18 16 16 17 15 14 11 10 12 13 13 11 10 8 8 10 10 11 12 12 12 12 13 13 14 15 16
28 33 31 29 29 30 33 32 30 27 26 22 20 19 19 18 16 14 13 15 15 14 13 12 13 13 13 13 11 10 10 10 11 12 12 13 14 14 14 14 13 14 15 15
30 29 26 28 26 27 30 31 30 27 24 23 22 21 18 16 16 15 15 15 15 14 12 15 14 14 12 12 12 12 12 13 13 14 15 15 15 15 16 16 16 17 18 19
28 28 27 21 25 27 28 28 28 28 26 24 22 21 20 18 16 16 16 16 15 15 13 13 14 13 13 13 14 14 14 15 16 16 16 16 16 17 17 17 19 19 20 21
21 27 28 26 24 26 26 26 28 30 28 26 24 21 18 16 17 17 18 17 12 16 14 13 14 13 13 14 15 16 16 17 17 17 17 17 18 18 18 18 20 21 21 22
17 20 25 26 24 25 26 26 27 28 27 25 23 21 20 19 18 17 16 14 11 17 15 13 13 13 13 15 16 17 17 17 18 19 19 19 19 20 18 18 19 20 21 22
13 16 20 24 24 24 26 28 28 28 27 25 23 21 19 16 15 16 14 12 11 13 12 13 14 15 16 17 17 17 17 18 18 18 18 18 20 19 19 19 19 20 21 22
14 15 19 21 23 24 28 28 28 27 25 22 20 19 18 17 15 14 13 14 13 14 14 14 15 16 17 18 19 20 21 18 18 20 20 19 20 19 20 19 19 20 21 22
15 15 19 24 26 25 25 26 28 28 26 24 22 20 17 16 14 12 14 14 14 15 15 16 17 17 18 19 19 19 19 18 18 17 16 19 19 18 18 18 20 21 21 22
18 22 22 25 26 25 26 28 29 28 26 23 20 18 16 15 14 13 13 14 15 16 16 16 17 17 17 18 18 18 18 17 15 13 16 17 18 17 17 18 18 19 20 21
24 22 25 28 27 27 29 29 29 29 25 21 18 17 16 15 14 14 15 15 15 15 15 15 15 15 16 16 16 16 16 15 14 14 15 15 14 14 15 15 16 17 19 20
Wind_Direction
103 157 351 13 10 352 60 24 63 316 337 336 344 349 346 347 5 20 32 40 44 56 64 79 98 124 130 114 101 95 100 100 96 99 124 133 165 191 197 202 208 218 223 226
285 251 81 49 3 352 39 348 283 310 32 357 347 354 357 2 8 14 28 36 47 50 68 71 82 85 104 98 93 98 98 96 91 95 81 97 101 108 165 171 217 214 204 218
266 285 277 331 297 345 122 309 286 6 261 335 345 2 356 359 3 15 27 37 50 59 68 66 68 77 85 86 90 87 89 88 76 78 95 97 106 120 130 149 177 196 196 224
265 352 328 230 245 187 150 164 320 318 308 214 222 320 14 21 20 30 42 50 59 63 68 76 81 84 91 92 88 89 89 83 84 87 90 94 97 98 108 116 144 160 178 193
155 239 288 276 244 169 130 257 325 333 346 339 261 319 13 30 42 44 50 58 62 68 71 73 75 80 84 83 88 94 89 89 91 96 100 105 105 103 100 97 113 113 151 181
161 173 234 232 166 169 133 285 136 175 357 5 54 45 335 20 42 50 54 56 60 64 65 66 68 70 71 71 72 73 76 81 87 87 85 83 84 90 93 101 103 94 72 61
191 241 284 236 183 148 133 230 156 133 117 140 82 111 41 37 49 54 57 61 60 59 60 60 60 62 66 67 63 60 61 67 70 71 71 74 74 75 76 74 59 41 26 350
106 264 294 160 110 172 191 150 153 146 141 125 117 117 90 67 61 61 62 62 59 60 65 66 62 61 68 63 58 54 53 52 53 51 49 51 49 51 51 53 53 54 30 358
186 220 251 195 215 218 190 175 173 164 163 150 144 144 121 98 76 66 61 59 55 51 51 53 51 44 48 56 48 42 38 37 40 40 35 31 31 26 25 26 25 25 15 4
10 250 226 227 229 241 201 199 186 182 173 164 142 139 135 116 95 78 67 61 58 51 47 45 44 40 39 35 31 26 22 18 16 12 16 10 13 9 355 347 346 346 344 344
268 270 271 238 221 210 202 205 193 187 187 179 181 183 184 174 129 91 84 65 39 36 30 21 20 20 19 12 13 9 3 1 2 1 0 357 354 355 348 342 335 333 326 320
219 214 199 232 208 200 203 208 214 209 199 203 208 218 229 238 248 272 313 337 349 349 350 354 5 4 359 359 357 354 354 358 3 1 359 353 346 339 339 331 319 313 310 306
212 231 209 242 207 205 206 206 209 212 216 219 224 230 240 253 263 268 276 286 292 297 308 320 327 330 335 336 338 335 339 344 344 350 349 351 356 356 354 338 329 316 309 302
218 209 206 218 202 201 209 210 218 221 222 230 239 246 250 255 261 265 273 279 282 285 287 292 296 306 310 315 315 316 323 326 332 337 340 346 349 351 350 345 342 336 330 329
214 214 235 228 214 202 205 207 212 217 222 229 241 251 257 264 269 273 273 273 274 275 277 276 275 278 282 287 292 297 301 307 314 316 322 326 331 331 331 334 335 335 332 326
209 216 227 238 214 207 205 209 215 218 221 227 235 242 247 251 254 258 260 261 263 267 269 266 262 267 273 279 285 286 286 291 297 304 310 316 319 324 330 332 333 336 338 337
200 214 217 220 214 210 210 214 219 221 226 229 236 240 244 249 252 254 256 259 265 270 276 280 265 267 277 286 287 284 286 292 297 302 306 311 314 317 320 323 326 328 329 329
227 233 226 223 219 216 215 218 222 224 226 232 234 238 242 248 256 259 262 261 265 270 275 280 279 279 283 285 282 283 289 290 292 297 300 305 309 312 310 310 311 313 314 316
230 235 240 235 233 232 227 226 226 227 228 230 235 241 251 255 255 259 264 268 269 279 279 272 274 278 278 271 272 278 281 280 283 288 293 299 301 300 300 301 302 306 307 309
228 232 237 243 240 236 234 232 229 227 229 232 235 236 244 249 254 261 265 270 271 273 270 265 269 273 271 270 272 275 277 280 285 289 293 295 295 293 293 294 295 299 302 305
236 234 236 238 245 239 235 232 227 225 226 229 232 240 248 251 253 256 260 269 272 264 262 262 266 266 266 270 271 276 280 283 285 287 287 287 287 288 289 289 290 294 298 301
253 247 234 237 241 236 233 229 227 228 227 228 231 233 238 245 251 255 259 266 247 252 258 260 260 262 265 268 271 274 278 281 282 284 288 288 284 281 282 287 289 293 296 298
273 258 244 238 238 239 231 226 223 225 227 228 231 234 241 249 249 251 255 260 250 251 250 250 255 260 265 268 271 275 278 280 282 283 285 289 291 280 282 288 290 294 296 299
289 258 248 242 240 235 226 223 221 221 223 225 229 235 237 237 241 247 247 253 257 259 262 260 261 263 265 269 272 273 276 280 276 279 279 285 291 287 287 288 292 295 298 301
289 266 244 242 236 234 230 225 220 216 216 219 225 229 232 235 237 239 250 258 263 266 270 269 270 271 274 280 283 286 285 286 286 283 284 287 289 288 286 288 293 298 300 303
280 273 256 238 238 235 228 223 221 219 217 219 224 228 233 238 244 245 250 258 264 269 273 275 277 279 282 284 285 286 286 288 289 287 284 282 282 283 286 292 298 302 303 306
286 267 249 238 227 225 228 224 220 218 219 219 221 226 233 240 247 257 263 265 267 269 272 276 279 280 281 283 283 284 283 281 275 274 275 278 282 287 293 297 301 305 305 306
Height
1488 1487 1483 1481 1482 1479 1477 1477 1479 1477 1470 1465 1459 1449 1440 1428 1414 1406 1400 1397 1391 1380 1378 1377 1375 1380 1383 1384 1388 1390 1391 1394 1398 1403 1402 1408 1415 1424 1430 1436 1444 1450 1456 1459
1490 1487 1484 1482 1482 1479 1477 1476 1474 1475 1474 1473 1465 1455 1444 1434 1424 1415 1408 1402 1396 1390 1386 1384 1386 1387 1390 1392 1397 1400 1402 1404 1407 1409 1411 1417 1421 1427 1431 1439 1442 1446 1452 1456
1494 1487 1484 1489 1480 1479 1480 1479 1477 1476 1474 1475 1469 1462 1453 1444 1434 1427 1420 1414 1407 1404 1403 1400 1401 1400 1400 1403 1406 1407 1411 1415 1416 1421 1424 1427 1430 1433 1436 1438 1443 1446 1447 1453
1498 1489 1489 1478 1474 1477 1477 1480 1475 1473 1470 1471 1470 1466 1461 1453 1445 1438 1430 1425 1422 1420 1416 1417 1418 1416 1416 1416 1417 1419 1420 1422 1426 1429 1430 1433 1436 1438 1440 1442 1445 1447 1449 1453
1494 1494 1484 1474 1473 1475 1476 1477 1476 1472 1469 1466 1465 1466 1465 1460 1455 1450 1445 1440 1436 1433 1432 1431 1429 1430 1427 1424 1425 1426 1427 1430 1432 1434 1435 1437 1439 1441 1444 1447 1450 1450 1451 1452
1496 1493 1482 1469 1471 1471 1473 1479 1475 1472 1469 1466 1463 1464 1466 1463 1460 1457 1452 1448 1445 1442 1440 1438 1437 1437 1433 1433 1435 1435 1437 1439 1441 1441 1442 1443 1444 1444 1445 1446 1448 1449 1451 1451
1490 1495 1478 1467 1468 1469 1474 1478 1471 1472 1471 1470 1469 1469 1468 1466 1463 1460 1457 1456 1453 1449 1447 1447 1448 1446 1443 1444 1441 1445 1444 1446 1446 1445 1445 1446 1449 1450 1449 1449 1451 1452 1450 1451
1491 1485 1485 1463 1467 1471 1465 1465 1467 1469 1471 1471 1470 1470 1469 1468 1466 1464 1462 1461 1458 1457 1458 1458 1456 1457 1456 1451 1452 1453 1451 1451 1451 1450 1449 1449 1449 1450 1451 1452 1451 1449 1449 1450
1481 1472 1458 1460 1461 1461 1460 1461 1464 1466 1469 1470 1471 1471 1471 1471 1469 1468 1466 1464 1463 1465 1463 1460 1459 1457 1459 1458 1461 1459 1456 1457 1456 1455 1457 1456 1452 1453 1454 1453 1453 1453 1452 1451
1471 1458 1457 1456 1457 1458 1460 1461 1462 1464 1466 1468 1469 1470 1471 1471 1471 1470 1469 1469 1469 1467 1465 1465 1466 1465 1461 1462 1462 1462 1462 1461 1461 1462 1460 1461 1456 1454 1456 1455 1454 1454 1452 1451
1465 1456 1456 1453 1453 1455 1457 1460 1461 1462 1464 1465 1467 1469 1470 1470 1470 1471 1471 1470 1469 1467 1467 1468 1466 1464 1465 1465 1465 1463 1463 1466 1464 1461 1458 1457 1455 1453 1454 1453 1454 1452 1452 1450
1456 1442 1442 1442 1446 1451 1454 1456 1459 1461 1462 1465 1467 1469 1470 1471 1471 1471 1470 1470 1469 1469 1468 1469 1467 1466 1467 1464 1464 1464 1464 1462 1458 1458 1457 1457 1456 1454 1450 1450 1451 1450 1447 1448
1438 1439 1442 1443 1444 1447 1451 1455 1458 1460 1462 1464 1466 1468 1470 1471 1471 1471 1471 1471 1471 1472 1472 1471 1470 1468 1466 1463 1463 1465 1462 1460 1458 1456 1457 1455 1449 1447 1445 1448 1446 1446 1445 1444
1436 1438 1441 1441 1441 1445 1449 1453 1456 1458 1459 1461 1464 1465 1467 1468 1469 1470 1470 1470 1470 1470 1470 1470 1469 1469 1467 1466 1466 1465 1461 1458 1457 1456 1454 1449 1447 1446 1446 1447 1446 1446 1445 1442
1432 1434 1436 1438 1440 1443 1447 1450 1453 1455 1457 1459 1460 1462 1463 1465 1466 1467 1467 1467 1466 1466 1466 1466 1466 1466 1466 1465 1464 1461 1458 1457 1456 1454 1451 1450 1448 1447 1446 1444 1445 1444 1441 1439
1428 1432 1433 1434 1436 1439 1443 1446 1449 1452 1455 1457 1459 1461 1462 1462 1463 1463 1464 1464 1464 1464 1463 1462 1463 1463 1462 1461 1460 1458 1457 1456 1455 1454 1452 1450 1449 1447 1446 1445 1444 1441 1439 1438
1423 1426 1426 1428 1430 1433 1435 1440 1444 1448 1452 1454 1456 1458 1459 1459 1460 1460 1460 1460 1460 1460 1459 1458 1459 1459 1459 1458 1457 1456 1455 1454 1452 1451 1450 1449 1448 1447 1445 1443 1441 1440 1438 1436
1419 1420 1422 1424 1428 1430 1434 1438 1442 1445 1448 1451 1453 1454 1455 1455 1455 1456 1455 1455 1455 1454 1454 1455 1455 1454 1454 1454 1453 1452 1451 1450 1448 1448 1447 1446 1445 1444 1442 1440 1439 1438 1437 1435
1416 1419 1421 1424 1426 1429 1431 1434 1437 1441 1444 1446 1447 1449 1450 1451 1451 1451 1451 1450 1450 1450 1451 1450 1450 1450 1450 1449 1449 1449 1448 1447 1446 1445 1445 1444 1442 1441 1440 1439 1437 1436 1434 1432
1412 1415 1419 1421 1423 1425 1427 1430 1434 1437 1439 1442 1443 1444 1445 1446 1446 1446 1446 1446 1446 1446 1445 1446 1446 1446 1446 1446 1445 1444 1443 1443 1442 1440 1439 1439 1438 1437 1436 1436 1435 1433 1431 1429
1411 1413 1415 1417 1419 1422 1423 1426 1428 1430 1434 1436 1438 1440 1441 1442 1442 1442 1442 1442 1443 1441 1441 1441 1442 1442 1441 1442 1442 1441 1440 1439 1438 1437 1436 1435 1434 1434 1433 1432 1430 1428 1426 1424
1409 1409 1410 1413 1415 1416 1419 1422 1425 1427 1429 1431 1434 1435 1436 1437 1438 1439 1439 1439 1440 1438 1438 1438 1438 1438 1438 1437 1436 1436 1435 1435 1434 1433 1431 1431 1430 1429 1427 1426 1425 1423 1421 1419
1405 1406 1408 1408 1409 1411 1414 1416 1419 1422 1425 1428 1429 1431 1432 1434 1435 1435 1436 1436 1436 1436 1436 1435 1435 1434 1433 1432 1432 1431 1430 1428 1428 1427 1426 1424 1423 1422 1422 1420 1418 1417 1415 1413
1401 1402 1403 1404 1405 1406 1407 1410 1414 1418 1421 1424 1426 1428 1428 1428 1430 1431 1432 1431 1431 1431 1431 1431 1429 1429 1428 1428 1427 1426 1424 1422 1421 1421 1420 1420 1419 1417 1416 1415 1413 1412 1410 1407
1396 1393 1396 1399 1398 1399 1403 1406 1408 1411 1414 1417 1420 1421 1423 1424 1425 1426 1426 1427 1427 1427 1427 1426 1425 1424 1423 1421 1420 1418 1418 1417 1415 1414 1414 1414 1413 1412 1411 1410 1408 1407 1405 1402
1392 1393 1389 1387 1391 1394 1395 1398 1401 1404 1406 1409 1413 1415 1417 1419 1419 1420 1420 1421 1422 1421 1421 1421 1419 1418 1417 1415 1414 1413 1412 1411 1410 1409 1410 1410 1410 1408 1407 1405 1403 1402 1400 1397
1387 1385 1384 1384 1381 1383 1388 1390 1393 1397 1401 1402 1405 1408 1411 1412 1413 1414 1416 1417 1417 1416 1416 1415 1415 1413 1411 1410 1409 1409 1408 1406 1406 1404 1404 1404 1405 1405 1404 1403 1400 1397 1396 1394